EST,Max TemperatureF,Mean TemperatureF,Min TemperatureF,Max Dew PointF,MeanDew PointF,Min DewpointF,Max Humidity, Mean Humidity, Min Humidity, Max Sea Level PressureIn, Mean Sea Level PressureIn, Min Sea Level PressureIn, Max VisibilityMiles, Mean VisibilityMiles, Min VisibilityMiles, Max Wind SpeedMPH, Mean Wind SpeedMPH, Max Gust SpeedMPH,PrecipitationIn, CloudCover, Events, WindDirDegrees
2013-2-1,39,31,23,28,12,1,81,45,25,30.39,30.16,29.87,10,10,10,21,7,33,0.00,1,,290
2013-2-2,41,28,15,34,14,9,93,57,30,30.40,30.25,30.04,10,10,10,14,2,28,0.00,3,Rain,207
2013-2-3,44,37,30,34,28,21,100,73,46,30.03,29.94,29.85,10,9,0,12,3,22,0.00,5,Fog-Rain,288
2013-2-4,44,34,23,28,22,18,100,58,36,30.16,30.06,30.00,10,10,10,9,3,,0.00,1,,236
2013-2-5,59,46,32,32,30,28,100,62,34,30.00,29.95,29.89,10,10,10,13,5,10,0.00,4,,226
2013-2-6,57,42,28,32,28,23,100,65,27,30.30,30.14,29.98,10,10,10,15,2,16,0.00,0,,356
2013-2-7,44,38,33,41,35,28,100,86,61,30.37,30.26,30.05,10,9,5,12,6,16,0.24,4,Rain,50
2013-2-8,53,44,35,43,37,28,100,81,47,30.05,29.92,29.83,10,10,7,15,8,29,0.18,5,Rain,329
2013-2-9,50,38,26,28,22,12,93,59,22,30.37,30.24,30.05,10,10,10,12,3,18,0.00,0,,319
2013-2-10,50,36,21,36,22,18,100,63,28,30.50,30.38,30.22,10,10,7,8,2,,0.05,2,Rain,145
2013-2-11,60,50,41,59,51,36,100,97,81,30.22,30.03,29.93,10,8,1,15,4,22,0.12,6,Rain,222
2013-2-12,59,50,42,52,32,25,94,52,31,30.10,30.01,29.94,10,10,10,12,5,18,0.00,1,,273
2013-2-13,50,44,39,45,42,32,100,93,50,29.98,29.78,29.65,10,7,2,10,3,,0.14,7,Rain,259
2013-2-14,50,39,28,34,31,28,100,77,46,30.07,30.00,29.84,10,10,5,9,2,,0.00,0,,263
2013-2-15,59,44,28,37,30,23,100,68,25,30.09,30.02,29.93,10,10,10,13,2,18,0.00,1,,265
2013-2-16,41,36,30,36,32,27,100,91,61,30.00,29.92,29.85,10,7,0,10,4,,0.17,8,Rain-Snow,345
2013-2-17,33,26,19,27,14,5,86,57,30,30.28,30.09,29.92,10,10,10,16,6,30,0.00,1,,302
2013-2-18,50,32,14,25,18,12,100,61,30,30.41,30.32,30.24,10,10,10,13,2,20,0.00,0,,190
2013-2-19,46,40,33,46,36,25,100,83,56,30.23,30.02,29.87,10,10,3,17,7,26,0.09,4,Rain,218
2013-2-20,50,41,32,27,15,9,61,39,19,30.16,30.06,29.98,10,10,10,12,6,22,0.00,0,,287
2013-2-21,50,36,23,25,18,14,86,47,26,30.28,30.19,30.13,10,10,10,8,3,,0.00,0,,1
2013-2-22,39,36,32,34,30,19,100,85,45,30.36,30.27,30.15,10,8,2,13,3,,0.03,8,Rain-Snow,72
2013-2-23,41,37,33,41,37,34,100,100,100,30.14,29.97,29.83,10,7,1,8,3,,0.13,7,Rain,347
2013-2-24,60,48,35,45,34,23,100,65,27,30.05,29.92,29.80,10,8,0,10,3,17,0.08,2,Fog-Rain,312
2013-2-25,41,36,30,27,24,21,86,65,45,30.24,30.17,30.06,10,10,10,15,6,21,0.00,0,,61
2013-2-26,53,42,32,54,39,25,100,93,75,30.17,29.85,29.59,10,6,0,18,7,28,0.38,8,Fog-Rain,71
2013-2-27,55,47,39,41,37,32,100,74,41,29.79,29.72,29.63,10,9,3,12,5,20,0.00,4,,255
2013-2-28,46,39,32,37,29,23,100,65,43,29.87,29.77,29.70,10,10,10,14,3,23,0.00,5,,293